Location: Unspecified
(0.0000°N, 0.0000°E)
Time: 06:05:36
(UTC+00:00)

Tiros 1 - Pass Details

Date: 07 October 2020
Orbit: 630 x 663 km, 48.4° (Epoch: 28 October)

Event Time Altitude Azimuth Distance (km) Brightness Sun altitude
Rises 18:58:28 0° 346° (NNW) 2,973 10.7 -17.6°
Reaches altitude 10° 19:01:19 10° 2° (N) 2,066 9.6 -18.3°
Enters shadow 19:03:21 18° 26° (NNE) 1,610 8.9 -18.8°
Maximum altitude 19:04:51 21° 50° (NE) 1,492 - -19.2°
Drops below altitude 10° 19:08:24 10° 99° (E) 2,073 - -20.1°
Sets 19:11:16 0° 115° (ESE) 2,986 - -20.8°
